KD9WYV Weather Reports


time (UTC)temp
C
wind
direction
speed
KPH
gust
KPH
rain 1hr
cm
rain 24hr
cm
rain mn
cm
humidity
%
barometer
mb
20260505151640 15 298 3.2 4.8 0.13 1.75 1.75 91 1009.1
20260505151138 15 273 4.8 4.8 0.13 1.75 1.75 91 1009.0
20260505150633 15 303 0.0 1.6 0.00 1.73 1.73 91 1009.3
20260505150131 15 296 4.8 4.8 0.18 1.73 1.73 90 1009.3
20260505140559 15 280 3.2 3.2 0.00 1.70 1.70 89 1008.6
20260505125013 14 269 6.4 6.4 0.00 1.70 1.70 89 1008.2
20260505124509 14 274 3.2 3.2 0.00 1.70 1.70 89 1008.3
20260505124006 14 261 3.2 3.2 0.00 1.70 1.70 90 1008.3
20260505123503 14 212 3.2 4.8 0.00 1.70 1.70 90 1008.2
20260505122958 14 314 4.8 6.4 0.00 1.70 1.70 90 1008.0
20260505122456 14 216 3.2 4.8 0.00 1.70 1.70 91 1008.1
20260505121952 14 311 1.6 1.6 0.00 1.70 1.70 91 1008.1
20260505121449 13 288 9.7 12.9 0.00 1.70 1.70 91 1008.2
20260505120945 13 185 4.8 6.4 0.00 1.70 1.70 92 1008.0
20260505120442 13 236 4.8 6.4 0.00 1.70 1.70 92 1008.0
20260505115941 13 300 1.6 3.2 0.00 1.70 1.70 93 1008.1
20260505115438 13 320 6.4 9.7 0.00 1.70 1.70 93 1008.0
20260505114936 13 274 3.2 3.2 0.00 1.70 1.70 93 1007.9
20260505114431 13 300 3.2 3.2 0.00 1.70 1.70 94 1007.8
20260505113928 13 265 6.4 6.4 0.00 1.70 1.70 94 1007.6
20260505113425 13 218 6.4 11.3 0.00 1.70 1.70 94 1007.4
20260505112920 13 287 3.2 3.2 0.00 1.70 1.70 94 1007.4
20260505112418 13 237 4.8 11.3 0.00 1.70 1.70 95 1007.4
20260505111914 13 169 3.2 6.4 0.00 1.70 1.70 95 1007.2
20260505111409 12 172 8.0 12.9 0.00 1.70 1.70 95 1007.2
20260505110906 12 330 0.0 1.6 0.00 1.70 1.70 95 1007.3
20260505110403 12 276 1.6 1.6 0.00 1.70 1.70 95 1007.1
20260505101833 12 156 1.6 1.6 0.00 1.70 1.70 95 1007.1
20260505101328 12 268 1.6 1.6 0.00 1.70 1.70 95 1007.0
20260505100824 12 220 6.4 6.4 0.00 1.70 1.70 95 1007.0
20260505100321 12 337 1.6 3.2 0.00 1.70 1.70 95 1006.8
20260505095817 12 304 1.6 3.2 0.00 1.70 1.70 95 1006.5
20260505095315 12 195 3.2 3.2 0.00 1.70 1.70 95 1006.3
20260505094810 12 290 3.2 6.4 0.00 1.70 1.70 95 1006.5
20260505094307 12 205 4.8 6.4 0.00 1.70 1.70 96 1006.9
20260505093803 12 194 3.2 4.8 0.00 1.70 1.70 96 1006.6
20260505093301 12 317 1.6 1.6 0.00 1.70 1.70 96 1006.6
20260505092757 12 236 3.2 3.2 0.00 1.70 1.70 96 1006.3
20260505092256 12 227 3.2 6.4 0.00 1.70 1.70 96 1006.4
20260505091752 12 95 1.6 3.2 0.00 1.70 1.70 96 1006.1
20260505091251 12 54 3.2 4.8 0.00 1.70 1.70 96 1005.8
20260505090748 12 130 4.8 9.7 0.00 1.70 1.70 96 1006.1
20260505090246 12 237 8.0 14.5 0.00 1.70 1.70 96 1006.3
20260505085743 12 84 3.2 4.8 0.00 1.70 1.70 96 1005.7
20260505085242 12 144 3.2 6.4 0.00 1.70 1.70 96 1005.7
20260505084738 12 145 8.0 11.3 0.00 1.70 1.70 96 1005.7
20260505084238 12 162 6.4 9.7 0.18 1.70 1.70 96 1005.1
20260505083734 12 125 4.8 6.4 0.48 1.70 1.70 96 1004.9
20260505083231 12 119 11.3 16.1 0.61 1.68 1.68 96 1006.1
20260505082726 13 115 8.0 11.3 0.61 1.63 1.63 96 1006.6
20260505082224 13 152 6.4 9.7 0.61 1.57 1.57 96 1007.3
20260505081720 13 53 1.6 1.6 0.61 1.55 1.55 96 1007.7
20260505081218 13 155 4.8 6.4 0.61 1.47 1.47 96 1007.9
20260505080714 13 299 1.6 1.6 0.66 1.45 1.45 96 1007.8
20260505080210 13 244 1.6 1.6 0.48 1.37 1.37 96 1008.1
20260505075706 13 22 1.6 1.6 0.61 1.35 1.35 96 1007.9
20260505075203 13 287 1.6 1.6 0.89 1.30 1.30 96 1008.3
20260505074700 13 301 3.2 3.2 0.89 1.24 1.24 95 1008.1
20260505074157 13 355 0.0 0.0 0.66 1.17 1.17 95 1008.0
20260505073654 13 251 1.6 3.2 0.66 1.12 1.12 95 1008.0
20260505073153 13 306 0.0 0.0 0.71 1.07 1.07 95 1008.2
20260505072648 13 306 1.6 1.6 0.89 1.02 1.02 95 1008.6
20260505072145 13 291 3.2 3.2 0.89 0.94 0.94 95 1008.5
20260505071640 13 278 1.6 3.2 0.79 0.86 0.86 95 1008.3
20260505071138 13 303 1.6 1.6 0.66 0.79 0.79 95 1007.9
20260505070635 13 297 0.0 1.6 0.61 0.74 0.74 94 1007.7
20260505070132 13 11 0.0 0.0 0.43 0.69 0.69 94 1007.5
20260505065628 13 48 1.6 1.6 0.13 0.64 0.64 94 1007.5
20260505065124 13 12 1.6 1.6 0.30 0.61 0.61 94 1007.5
20260505064621 13 22 1.6 1.6 0.30 0.61 0.61 94 1007.3
20260505064120 13 191 1.6 1.6 0.13 0.58 0.58 93 1007.7
20260505063617 13 298 0.0 0.0 0.18 0.56 0.56 93 1008.0
20260505063112 13 236 1.6 1.6 0.79 0.56 0.56 92 1007.5
20260505062609 13 66 3.2 3.2 0.89 0.53 0.53 92 1007.4
20260505062107 13 13 0.0 0.0 0.61 0.43 0.43 92 1008.0
20260505061604 13 306 0.0 0.0 0.48 0.38 0.38 91 1008.0
20260505061102 13 277 1.6 1.6 0.43 0.36 0.36 91 1008.3
20260505060559 13 334 1.6 3.2 0.30 0.30 0.30 90 1008.2
20260505060056 13 308 9.7 11.3 0.30 0.28 0.28 90 1008.1
20260505055551 13 352 3.2 4.8 0.30 0.25 0.25 89 1008.1
20260505055048 13 357 8.0 11.3 0.66 0.23 0.23 88 1008.1
20260505054545 13 354 11.3 16.1 0.48 0.20 0.20 86 1008.4
20260505054043 15 303 19.3 25.7 0.30 0.15 0.15 81 1008.3
20260505053540 16 239 11.3 14.5 0.43 0.13 0.13 78 1008.1
20260505053037 16 312 12.9 17.7 0.61 0.10 0.10 74 1007.7
20260505052534 18 314 6.4 11.3 0.30 0.05 0.05 70 1007.6
20260505052031 19 286 20.9 24.1 0.00 0.00 0.00 57 1007.1
20260505051527 20 236 22.5 29.0 0.00 0.00 0.00 53 1005.7
20260505051026 20 317 20.9 29.0 0.00 0.00 0.00 47 1005.2
20260505050524 20 217 29.0 43.5 0.00 0.00 0.00 46 1004.7
20260505041451 20 309 8.0 9.7 0.00 0.00 0.00 44 1004.2
20260505040948 20 217 8.0 12.9 0.00 0.00 0.00 44 1003.9
20260505040446 20 223 8.0 11.3 0.00 0.00 0.00 45 1003.9
20260505035943 20 162 6.4 9.7 0.00 0.00 0.00 45 1004.0
20260505035439 20 227 6.4 6.4 0.00 0.00 0.00 45 1003.9
20260505034936 20 193 8.0 11.3 0.00 0.00 0.00 45 1004.1
20260505034432 20 219 8.0 9.7 0.00 0.00 0.00 45 1003.9
20260505033930 20 193 9.7 12.9 0.00 0.00 0.00 46 1004.3
20260505033426 20 266 4.8 6.4 0.00 0.00 0.00 46 1004.2
20260505032924 20 260 1.6 3.2 0.00 0.00 0.00 46 1004.3
20260505032421 20 125 3.2 4.8 0.00 0.00 0.00 46 1004.3
20260505031918 20 238 11.3 14.5 0.00 0.00 0.00 46 1004.5
20260505031415 20 280 3.2 4.8 0.00 0.00 0.00 46 1004.5
20260505030912 21 187 4.8 4.8 0.00 0.00 0.00 46 1004.4
20260505030408 21 221 8.0 12.9 0.00 0.00 0.00 45 1004.5
20260505025903 21 158 3.2 4.8 0.00 0.00 0.00 45 1004.5
20260505025401 21 265 3.2 4.8 0.00 0.00 0.00 45 1004.6
20260505024900 21 83 4.8 4.8 0.00 0.00 0.00 44 1004.6
20260505024357 21 189 4.8 6.4 0.00 0.00 0.00 44 1004.3
20260505023854 21 217 8.0 12.9 0.00 0.00 0.00 44 1004.6
20260505023351 21 201 9.7 12.9 0.00 0.00 0.00 44 1004.6
20260505022848 21 232 6.4 6.4 0.00 0.00 0.00 44 1004.6
20260505022345 21 203 8.0 9.7 0.00 0.00 0.00 44 1004.6
20260505021842 21 301 4.8 6.4 0.00 0.00 0.00 45 1004.6
20260505021338 21 154 3.2 4.8 0.00 0.00 0.00 44 1004.7
20260505020834 21 172 9.7 12.9 0.00 0.00 0.00 44 1004.6
20260505020330 21 217 11.3 14.5 0.00 0.00 0.00 44 1004.6
20260505015827 21 240 4.8 4.8 0.00 0.00 0.00 45 1004.6
20260505015324 21 263 8.0 11.3 0.00 0.00 0.00 45 1004.4
20260505014821 21 159 8.0 11.3 0.00 0.00 0.00 45 1004.3
20260505014318 21 251 8.0 16.1 0.00 0.00 0.00 45 1004.4
20260505013815 21 297 3.2 4.8 0.00 0.00 0.00 45 1004.2
20260505013312 21 238 8.0 9.7 0.00 0.00 0.00 45 1004.1
20260505012811 21 233 6.4 6.4 0.00 0.00 0.00 45 1004.0
20260505012308 21 270 4.8 4.8 0.00 0.00 0.00 45 1003.9
20260505011803 22 315 3.2 4.8 0.00 0.00 0.00 45 1004.0
20260505011301 22 341 6.4 6.4 0.00 0.00 0.00 45 1003.9
20260505010756 22 302 3.2 3.2 0.00 0.00 0.00 45 1003.7
20260505010253 21 248 14.5 16.1 0.00 0.00 0.00 45 1003.4
20260505005749 21 217 8.0 11.3 0.00 0.00 0.00 45 1003.7
20260505005246 22 188 8.0 11.3 0.00 0.00 0.00 45 1003.4
20260505004743 22 193 4.8 4.8 0.00 0.00 0.00 45 1003.4
20260505004239 22 271 8.0 12.9 0.00 0.00 0.00 44 1003.4
20260505003737 22 293 3.2 4.8 0.00 0.00 0.00 44 1003.4
20260505003235 22 198 8.0 12.9 0.00 0.00 0.00 43 1003.3
20260505002730 22 211 4.8 6.4 0.00 0.00 0.00 43 1003.3
20260505002228 22 240 6.4 11.3 0.00 0.00 0.00 42 1003.3
20260505001725 23 264 8.0 11.3 0.00 0.00 0.00 41 1003.2
20260505001223 23 209 6.4 9.7 0.00 0.00 0.00 40 1003.2
20260505000720 23 213 12.9 17.7 0.00 0.00 0.00 40 1003.4
20260505000218 23 161 4.8 6.4 0.00 0.00 0.00 39 1003.4
20260504235714 23 198 6.4 9.7 0.00 0.00 0.00 39 1003.5
20260504235210 23 261 3.2 4.8 0.00 0.00 0.00 38 1003.7
20260504234708 23 207 17.7 27.4 0.00 0.00 0.00 37 1003.5
20260504234205 23 258 14.5 24.1 0.00 0.00 0.00 37 1004.0
20260504233700 24 226 17.7 25.7 0.00 0.00 0.00 36 1003.9
20260504233156 24 279 8.0 12.9 0.00 0.00 0.00 36 1003.9
20260504232654 24 251 8.0 14.5 0.00 0.00 0.00 36 1004.0
20260504232151 24 232 8.0 11.3 0.00 0.00 0.00 36 1004.1
20260504231648 24 233 12.9 25.7 0.00 0.00 0.00 35 1003.9
20260504231144 24 308 11.3 16.1 0.00 0.00 0.00 35 1004.0
20260504230640 25 239 16.1 22.5 0.00 0.00 0.00 34 1004.2
20260504230139 25 234 14.5 20.9 0.00 0.00 0.00 35 1004.3
20260504225637 25 231 12.9 17.7 0.00 0.00 0.00 36 1004.4
20260504225133 24 243 8.0 11.3 0.00 0.00 0.00 39 1004.6
20260504224630 24 236 16.1 22.5 0.00 0.00 0.00 39 1004.4
20260504224127 25 226 12.9 16.1 0.00 0.00 0.00 39 1004.4
20260504223624 25 341 4.8 6.4 0.00 0.00 0.00 41 1004.2
20260504223120 24 205 11.3 16.1 0.00 0.00 0.00 41 1004.4
20260504222616 24 220 9.7 14.5 0.00 0.00 0.00 44 1004.3
20260504222114 24 214 6.4 12.9 0.00 0.00 0.00 45 1004.5
20260504221611 24 233 12.9 17.7 0.00 0.00 0.00 45 1004.7
20260504221108 23 230 6.4 9.7 0.00 0.00 0.00 47 1004.9
20260504220604 23 238 3.2 4.8 0.00 0.00 0.00 48 1004.7
20260504215558 22 348 1.6 4.8 0.00 0.00 0.00 50 1004.6
20260504215055 22 158 3.2 4.8 0.00 0.00 0.00 50 1004.7
20260504214551 23 264 6.4 11.3 0.00 0.00 0.00 49 1005.1
20260504214048 23 247 11.3 17.7 0.00 0.00 0.00 49 1005.1
20260504213544 23 136 3.2 4.8 0.00 0.00 0.00 48 1004.8
20260504213041 23 211 9.7 14.5 0.00 0.00 0.00 48 1004.9
20260504212537 23 219 4.8 4.8 0.00 0.00 0.00 48 1005.1
20260504212035 22 196 6.4 6.4 0.00 0.00 0.00 50 1005.1
20260504211531 21 177 6.4 9.7 0.00 0.00 0.00 52 1005.2
20260504211028 21 249 9.7 12.9 0.00 0.00 0.00 52 1005.4
20260504210525 21 284 6.4 11.3 0.00 0.00 0.00 55 1005.4
20260504210022 20 303 6.4 11.3 0.00 0.00 0.00 57 1005.5
20260504205520 20 227 3.2 6.4 0.00 0.00 0.00 57 1005.6
20260504205018 20 43 4.8 6.4 0.00 0.00 0.00 59 1005.8
20260504204515 20 238 12.9 17.7 0.00 0.00 0.00 58 1005.8
20260504204014 20 223 6.4 11.3 0.00 0.00 0.00 59 1005.6
20260504203512 20 202 9.7 17.7 0.00 0.00 0.00 58 1005.8
20260504203009 20 235 14.5 22.5 0.00 0.00 0.00 58 1005.7
20260504202504 20 239 9.7 14.5 0.00 0.00 0.00 58 1005.6
20260504202001 20 148 9.7 14.5 0.00 0.00 0.00 58 1005.7
20260504201458 20 210 14.5 16.1 0.00 0.00 0.00 57 1005.7
20260504200956 20 272 25.7 33.8 0.00 0.00 0.00 55 1005.9
20260504200453 20 277 11.3 14.5 0.00 0.00 0.00 53 1005.8
20260504195949 20 238 9.7 12.9 0.00 0.00 0.00 51 1005.8
20260504195445 20 235 17.7 22.5 0.00 0.00 0.00 51 1005.8
20260504194942 20 282 11.3 12.9 0.00 0.00 0.00 54 1005.7
20260504194438 20 226 9.7 14.5 0.00 0.00 0.00 54 1005.9
20260504193934 20 241 9.7 12.9 0.00 0.00 0.00 55 1005.9
20260504193432 20 296 6.4 9.7 0.00 0.00 0.00 55 1006.0
20260504192930 20 233 8.0 11.3 0.00 0.00 0.00 54 1005.9
20260504192427 21 220 14.5 17.7 0.00 0.00 0.00 48 1006.4
20260504191926 21 272 9.7 20.9 0.00 0.00 0.00 48 1006.3
20260504191424 21 278 8.0 12.9 0.00 0.00 0.00 48 1006.4
20260504190919 21 231 19.3 24.1 0.00 0.00 0.00 48 1006.4
20260504190414 21 237 9.7 17.7 0.00 0.00 0.00 49 1006.4
20260504185911 21 245 9.7 12.9 0.00 0.00 0.00 49 1006.4
20260504185409 21 267 16.1 24.1 0.00 0.00 0.00 49 1006.6
20260504184904 21 233 6.4 11.3 0.00 0.00 0.00 50 1006.8
20260504184400 21 248 11.3 12.9 0.00 0.00 0.00 50 1007.0
20260504183856 21 284 9.7 14.5 0.00 0.00 0.00 50 1007.1
20260504183354 21 330 12.9 17.7 0.00 0.00 0.00 51 1006.8
20260504182851 21 221 19.3 35.4 0.00 0.00 0.00 49 1006.9
20260504182348 21 229 9.7 17.7 0.00 0.00 0.00 49 1007.3
20260504181845 21 215 22.5 27.4 0.00 0.00 0.00 48 1007.0
20260504181343 21 236 11.3 16.1 0.00 0.00 0.00 48 1006.9
20260504180841 21 234 14.5 20.9 0.00 0.00 0.00 47 1007.3
20260504180339 21 323 19.3 24.1 0.00 0.00 0.00 47 1006.8
20260504175838 21 245 6.4 11.3 0.00 0.00 0.00 47 1006.6
20260504175334 22 274 19.3 25.7 0.00 0.00 0.00 45 1006.4
20260504174832 23 288 14.5 20.9 0.00 0.00 0.00 43 1006.4
20260504174329 23 266 12.9 17.7 0.00 0.00 0.00 45 1006.6
20260504173826 23 240 9.7 12.9 0.00 0.00 0.00 45 1006.4
20260504173323 22 244 17.7 20.9 0.00 0.00 0.00 44 1006.6
20260504172820 23 208 22.5 29.0 0.00 0.00 0.00 44 1006.4
20260504172316 22 231 9.7 14.5 0.00 0.00 0.00 47 1006.1
20260504171812 22 210 12.9 17.7 0.00 0.00 0.00 46 1006.3
20260504171310 22 235 9.7 20.9 0.00 0.00 0.00 49 1006.6
20260504170807 22 232 17.7 20.9 0.00 0.00 0.00 48 1006.4
20260504170304 22 230 14.5 22.5 0.00 0.00 0.00 48 1006.5
20260504160222 21 229 9.7 11.3 0.00 0.00 0.00 49 1007.2